Theta_e
313 316 315 316 315 315 314 313 316 317 317 318 318 321 322 321 318 314 315 309 305 314 318 317 319 317 317 317 313 312 311 309 312 313 315 316 316 316 316 316 316 316 316 316 315 316 316 316 316 316 316 316 316 316 316 316 316 316 316 315 316 315 315 315 315 315 315 315 315 315 315 315 315 315 315 316 316 316 317 318 319 319 320 322 323 323
314 317 318 317 313 312 313 314 315 315 316 318 317 320 318 318 319 314 314 312 306 312 318 315 319 318 318 318 312 310 310 309 311 311 312 314 314 314 315 315 315 315 315 315 315 315 315 316 316 316 316 316 316 316 315 316 316 316 316 315 316 316 316 316 315 315 315 315 315 315 315 315 315 315 316 316 317 318 319 320 320 322 324 327 328 328
315 319 320 313 306 308 312 315 318 318 320 321 317 317 318 317 318 313 312 313 308 312 319 318 319 318 317 317 312 307 308 309 310 310 310 311 312 312 313 313 313 313 314 314 314 314 314 315 315 314 315 315 314 315 315 315 315 316 316 316 316 316 316 316 316 315 316 316 316 316 316 316 316 316 317 317 318 319 320 321 322 323 324 326 328 328
316 319 315 305 303 311 315 316 318 318 319 321 318 318 318 316 318 317 314 313 311 311 316 317 317 317 317 319 315 305 304 308 307 308 309 309 310 310 311 311 312 313 313 313 313 313 314 314 314 314 314 314 314 314 314 314 315 315 315 316 316 316 316 316 316 316 315 316 315 316 316 317 317 317 318 318 318 319 319 320 322 322 323 323 323 323
316 311 305 302 308 315 315 314 318 320 318 317 322 327 324 319 319 318 314 314 313 310 311 314 316 322 323 325 322 309 304 307 307 309 311 310 311 312 312 312 312 313 312 312 313 313 314 314 314 314 314 314 314 314 313 314 314 315 315 316 316 316 316 316 316 316 315 315 316 316 316 317 318 318 318 318 318 318 318 318 319 320 321 322 322 323
314 305 303 308 312 315 315 316 319 321 319 315 322 329 326 324 322 317 315 317 318 314 310 310 315 326 329 327 324 315 312 312 308 308 311 312 314 314 314 313 312 313 313 313 314 315 315 315 315 315 315 314 314 314 314 313 314 314 315 315 316 316 316 316 316 316 315 315 316 316 317 317 317 318 317 317 317 318 318 319 320 321 322 323 323 324
311 304 307 312 313 315 315 315 316 318 320 316 316 318 320 324 324 320 318 317 319 315 308 308 315 321 323 324 322 316 317 317 310 308 310 312 314 314 314 314 313 315 315 315 316 316 316 316 315 315 315 315 314 314 314 314 314 314 315 315 315 316 316 316 316 315 315 315 315 316 316 317 317 317 317 317 319 320 320 321 321 322 322 323 324 324
309 308 310 313 315 316 315 315 314 315 319 316 313 314 320 323 323 323 322 320 320 314 311 315 317 315 317 321 320 313 314 316 314 311 310 310 312 313 314 315 315 315 316 316 316 316 316 316 316 316 316 315 315 315 315 315 315 314 315 315 315 315 315 316 315 315 315 315 316 316 316 316 317 317 317 318 320 320 321 321 321 321 321 322 323 323
309 314 314 314 318 316 315 316 313 316 320 316 309 312 318 320 323 327 326 325 319 312 316 320 313 312 320 323 320 314 312 314 314 313 311 309 311 313 313 314 315 315 315 316 316 316 316 316 316 316 317 316 316 316 316 316 316 316 316 316 316 316 316 316 316 316 316 316 316 316 316 316 317 317 318 318 319 319 320 319 319 319 319 319 320 320
309 313 311 313 318 316 315 313 310 319 322 311 305 310 314 316 321 323 323 323 319 316 322 319 309 311 319 325 324 315 311 314 313 312 311 309 310 312 313 314 314 315 315 315 316 316 316 316 316 316 317 317 317 317 317 317 317 317 316 317 317 317 316 316 316 316 316 316 316 316 316 316 316 316 316 317 316 317 317 317 316 316 316 317 317 318
308 309 309 311 314 312 310 308 307 313 312 306 310 315 315 319 323 322 321 319 317 321 323 313 308 310 313 322 325 314 311 315 314 313 311 309 311 311 312 313 313 314 314 315 315 315 316 316 316 316 316 316 316 316 316 316 316 316 316 316 316 316 316 315 315 315 315 315 315 315 315 315 315 315 315 315 315 315 315 314 314 314 314 315 315 315
311 311 311 309 309 307 309 310 307 305 305 310 321 321 316 321 323 322 324 318 316 325 320 309 308 311 311 318 318 312 313 314 313 314 312 310 310 311 312 313 312 313 313 314 314 314 315 315 315 316 316 315 316 316 315 315 315 315 315 315 315 315 315 315 315 315 315 315 315 315 315 315 315 315 315 315 315 314 314 314 314 314 314 313 313 313
315 315 311 309 308 309 314 316 310 309 312 315 320 320 319 321 318 322 326 318 317 321 313 307 309 310 312 317 314 313 316 311 307 309 310 309 310 311 312 312 312 313 313 313 314 314 314 314 314 315 315 315 315 315 315 315 315 315 315 315 315 315 315 315 315 315 315 315 315 315 315 315 315 315 315 315 315 314 314 314 314 314 313 313 313 313
318 318 313 312 312 310 314 317 314 315 317 314 315 319 322 321 315 317 319 313 315 316 308 306 309 311 314 315 314 316 313 308 305 307 309 310 310 311 311 312 313 313 313 313 313 313 313 314 314 314 314 314 314 314 314 314 314 314 314 314 314 315 314 315 315 315 315 315 315 315 315 315 315 314 315 314 314 314 314 314 314 314 314 314 313 313
319 319 316 315 313 311 313 315 316 317 315 314 315 315 318 324 322 319 319 320 321 316 309 307 310 318 318 311 311 311 306 305 307 308 310 310 311 312 311 312 313 313 313 313 313 313 313 313 313 313 313 314 314 314 314 314 314 314 314 314 314 314 314 314 314 314 314 314 314 314 314 314 314 314 314 314 314 314 314 314 314 314 314 314 314 314
316 316 315 310 308 311 314 312 313 316 316 314 313 312 315 320 321 316 312 317 318 313 311 310 313 320 315 307 308 306 303 305 305 307 310 310 311 312 311 312 313 313 313 313 313 313 313 313 313 313 313 313 314 314 314 314 314 314 314 314 314 314 314 314 314 314 314 314 314 314 314 314 314 314 314 314 314 314 314 314 314 314 314 314 314 314
315 314 313 311 309 310 311 309 308 312 315 314 312 314 316 313 315 314 306 306 309 311 313 312 314 318 313 309 312 308 307 307 305 307 309 310 312 312 311 312 313 313 313 313 313 313 313 313 313 313 313 313 313 313 314 314 313 314 313 313 313 314 314 314 314 314 314 314 314 314 314 314 314 314 314 314 314 314 314 314 314 314 314 314 314 314
317 314 312 313 314 309 307 307 306 306 310 315 316 315 311 307 313 317 312 312 312 313 318 314 312 317 315 314 315 311 311 310 308 307 306 308 312 311 311 312 312 313 313 313 314 313 313 313 313 314 313 314 314 314 314 314 314 314 314 313 314 313 314 314 314 314 314 314 314 314 314 314 314 314 314 314 314 314 314 314 314 314 314 314 314 314
319 318 311 310 315 311 307 310 311 307 306 312 315 310 310 314 316 313 312 318 315 311 320 318 310 311 312 316 316 312 313 313 310 309 308 308 311 310 311 312 312 314 313 313 314 313 314 314 313 314 314 314 314 314 314 314 314 314 314 314 314 313 314 314 314 314 314 314 314 314 314 314 314 314 314 314 314 314 314 314 314 314 314 314 314 314
317 322 314 309 312 312 311 313 316 314 309 308 308 306 312 322 320 313 311 317 315 310 317 318 313 314 314 315 318 313 313 312 310 312 310 308 310 311 311 311 312 313 313 313 313 313 314 314 314 314 314 314 314 314 314 314 314 314 314 314 314 313 314 313 314 314 314 314 314 314 314 314 314 313 313 314 313 313 314 313 314 314 314 314 314 314
314 319 316 312 311 313 316 316 315 316 312 309 310 310 313 315 313 313 312 312 315 315 318 316 317 325 320 311 314 315 311 309 310 312 310 308 311 311 310 312 313 313 313 313 313 313 314 314 314 314 314 314 314 314 314 314 314 314 313 313 314 313 314 313 314 313 313 314 313 314 314 313 314 314 313 313 313 313 313 313 314 314 314 314 314 314
315 315 316 315 314 315 316 313 310 313 312 310 311 311 313 313 313 315 313 310 312 313 317 314 313 325 322 309 312 314 307 305 307 309 308 308 311 311 310 312 312 313 314 313 313 314 313 313 314 313 313 313 313 314 314 313 314 313 313 313 313 313 313 313 313 313 313 313 313 313 313 313 313 313 313 313 313 314 313 313 314 313 313 313 313 313
312 316 319 317 316 315 312 306 302 307 311 310 311 312 313 313 315 319 317 314 310 306 310 312 311 321 321 305 304 306 301 301 306 307 308 309 310 311 311 312 312 313 313 313 313 313 313 313 313 313 313 313 313 313 313 313 313 313 313 313 313 313 313 313 313 312 312 312 312 312 311 311 311 311 312 312 312 313 313 313 313 313 313 313 313 313
310 318 319 316 317 315 312 308 304 306 311 311 313 314 313 313 315 320 321 318 314 309 311 311 311 325 323 302 297 301 299 302 306 307 308 309 310 311 311 312 313 313 312 313 313 313 313 313 313 313 313 313 313 313 313 313 313 313 313 313 313 313 312 312 312 311 311 311 311 311 310 310 310 310 310 310 310 310 310 311 312 312 312 312 312 313
312 318 317 315 317 316 315 315 312 312 312 314 317 315 313 314 314 313 313 314 315 315 315 314 316 326 322 305 300 302 301 302 305 307 308 309 310 311 311 312 312 312 312 313 312 312 312 312 312 313 313 312 313 313 313 313 312 312 312 312 312 312 311 311 311 311 311 311 311 311 310 310 309 309 309 308 308 308 308 309 309 309 310 311 311 311
315 319 316 315 316 315 315 316 315 316 314 314 318 315 312 314 312 312 314 313 315 315 313 315 320 320 314 309 309 307 305 306 306 306 308 309 310 311 311 312 312 312 312 312 312 312 312 312 312 312 312 312 312 311 312 312 312 311 311 311 311 310 310 310 310 310 310 310 310 310 309 309 308 308 307 307 307 306 307 307 307 307 308 308 309 309
319 318 313 314 314 312 314 315 316 318 316 315 316 314 312 311 311 316 319 315 314 314 311 315 321 316 311 311 310 309 311 311 307 306 308 309 310 312 311 311 312 312 312 311 311 311 311 311 311 311 311 311 310 311 311 311 311 310 310 309 309 309 309 308 308 308 308 308 308 308 308 307 307 306 306 305 305 305 305 305 305 305 305 306 306 306
320 315 312 315 313 313 319 319 316 317 317 315 316 314 312 312 312 315 317 313 314 314 311 314 317 314 312 313 311 310 313 311 306 306 308 309 310 312 311 311 311 311 311 311 311 311 311 311 311 310 310 310 310 310 310 310 310 309 309 308 307 307 307 307 307 307 307 307 307 306 306 305 305 305 304 304 304 304 304 304 304 303 303 303 304 304
318 314 313 314 312 313 319 318 315 316 316 315 316 315 313 312 312 313 314 313 313 313 312 313 314 312 314 314 311 309 310 309 307 308 309 310 311 312 311 311 311 311 311 311 311 310 310 310 310 310 310 309 310 310 310 309 309 308 307 307 306 306 306 305 305 305 305 305 305 304 304 304 304 303 303 303 303 303 303 303 303 303 302 302 303 303
314 317 316 312 310 311 314 314 313 314 314 314 314 314 312 312 312 312 313 312 312 312 313 315 315 313 314 313 310 308 307 307 308 309 310 310 311 311 311 311 311 310 311 311 310 310 309 310 310 310 310 310 310 310 309 308 307 306 306 305 305 305 304 304 304 303 303 303 303 302 302 302 302 302 302 302 302 302 302 302 302 302 301 302 302 302
310 316 315 311 310 312 312 312 312 312 313 314 313 312 311 311 311 311 312 312 311 311 313 315 316 314 312 309 307 307 306 306 307 308 309 310 311 311 311 311 310 310 311 310 310 309 309 309 310 309 310 310 309 308 307 306 305 305 304 304 303 303 303 303 302 302 302 302 301 301 301 301 301 301 301 301 301 301 301 301 301 301 301 301 301 301
310 313 314 312 312 313 310 310 311 310 310 312 313 313 311 311 311 311 311 312 312 311 312 313 313 313 311 308 306 306 305 304 305 307 309 310 311 311 311 310 310 310 310 309 309 309 309 309 309 309 309 308 307 306 306 305 304 304 303 302 302 302 302 301 301 301 301 301 301 301 301 301 301 300 300 300 300 300 300 300 300 300 300 300 300 300
314 316 316 313 314 314 308 308 312 311 310 312 312 312 311 310 311 310 310 312 312 311 313 312 310 312 312 310 310 309 306 304 306 308 309 310 310 310 311 310 310 310 310 309 310 310 310 310 309 308 307 306 305 305 304 303 303 303 302 301 301 301 301 301 301 301 300 301 301 300 300 300 300 300 300 300 300 300 300 300 300 300 300 300 300 300
314 318 317 314 318 316 307 307 313 312 311 312 312 312 311 310 311 311 311 312 310 310 312 312 314 317 314 310 312 312 309 307 307 308 309 310 310 310 310 310 310 310 310 310 310 310 309 308 307 306 305 304 304 303 302 302 301 301 301 301 301 301 300 300 300 300 300 300 300 300 300 300 300 300 300 300 300 300 300 300 300 300 300 299 300 299
314 316 315 316 320 316 307 309 314 314 312 313 315 315 311 309 310 311 312 312 310 310 311 312 315 316 311 307 309 310 309 309 308 309 310 310 310 310 310 310 310 310 310 310 309 308 307 306 305 304 303 303 302 301 301 301 301 301 300 300 300 300 300 300 300 300 300 300 300 300 299 299 299 299 299 299 299 299 299 299 299 299 299 299 299 299
315 315 315 316 316 313 310 312 316 315 313 314 315 312 308 309 310 310 311 311 311 311 311 311 312 310 305 304 307 309 309 309 309 309 310 310 310 310 310 310 310 309 309 308 307 306 305 304 303 302 302 301 301 300 300 300 300 300 300 300 300 300 300 299 299 299 299 299 299 299 298 298 298 298 298 298 298 298 298 298 298 298 298 298 298 298
314 317 316 315 314 314 313 313 315 316 314 315 316 312 309 310 311 310 312 313 311 310 309 310 311 308 305 305 308 309 308 308 309 308 308 309 310 309 309 309 309 308 307 305 304 304 303 302 302 301 300 300 300 300 300 300 300 299 299 299 299 299 299 299 299 298 298 298 298 297 297 297 297 297 297 297 297 297 297 297 297 296 296 296 297 297
313 316 316 315 315 316 315 314 315 316 315 315 317 314 309 309 309 309 312 316 315 310 306 308 311 307 304 305 307 307 308 310 311 309 306 307 307 307 307 307 306 305 304 304 303 302 301 301 300 300 299 299 299 299 299 299 299 299 298 298 298 298 298 298 297 297 297 297 297 297 297 296 296 296 296 296 296 296 296 296 296 296 296 296 296 296
312 314 316 315 315 315 315 315 315 315 314 314 316 313 308 307 308 309 312 317 315 309 306 307 308 306 306 306 305 305 308 312 312 309 306 306 305 305 305 305 304 303 303 302 301 301 300 299 299 299 298 298 298 298 298 298 298 297 297 297 297 297 297 297 297 297 296 296 296 296 296 296 296 296 295 295 295 295 295 295 295 295 295 295 295 295
311 313 313 314 314 314 314 315 315 315 314 314 315 310 306 308 310 312 316 317 311 308 309 309 306 306 308 306 304 305 310 312 312 309 307 306 304 303 303 303 302 302 301 300 299 299 298 298 298 298 298 298 298 298 297 297 297 297 296 296 296 296 296 296 296 296 296 295 295 295 295 295 295 295 295 295 294 294 294 294 294 294 294 294 294 294
311 312 311 312 313 313 314 315 315 316 316 314 311 307 305 308 312 314 318 316 310 309 310 309 309 310 309 305 304 307 309 309 309 309 307 305 303 302 302 301 300 300 299 299 298 298 298 298 297 297 297 297 297 296 296 296 296 296 295 295 295 295 295 295 295 294 294 294 294 294 294 293 293 293 293 293 293 293 293 293 293 293 293 293 293 293
311 312 312 312 312 312 313 314 314 315 315 310 306 304 306 310 314 314 314 311 309 308 309 308 309 309 308 306 306 307 307 307 307 307 306 303 302 301 300 299 299 298 298 298 298 298 297 297 296 296 296 296 296 295 295 295 295 295 295 294 294 294 294 294 293 293 293 293 292 292 292 292 292 292 292 292 292 292 292 292 292 292 292 292 292 293
312 312 312 312 312 313 313 313 314 315 312 306 306 307 307 311 316 314 309 307 308 309 309 309 308 308 307 308 307 306 306 306 306 306 304 302 300 300 299 299 298 298 298 297 297 297 296 296 296 295 295 295 295 295 295 295 294 294 294 293 293 293 293 292 292 292 292 292 292 292 292 292 291 291 292 292 292 292 292 292 292 292 292 292 291 292
312 312 313 313 312 313 313 313 315 313 308 306 310 311 309 310 312 310 308 307 308 309 309 309 308 308 308 308 307 306 306 305 305 304 302 300 299 299 299 298 298 297 297 296 296 296 295 295 295 295 294 294 294 294 294 294 293 293 293 292 292 292 292 292 292 292 292 291 292 291 291 291 291 291 291 291 291 291 291 291 292 292 292 292 291 292
311 311 312 313 312 313 313 314 314 310 306 307 309 309 308 308 308 309 309 309 309 309 309 309 309 309 308 309 308 306 305 304 304 302 301 300 299 299 298 297 296 296 295 295 295 295 295 295 295 294 294 294 293 293 293 292 292 292 292 292 292 292 291 291 291 291 291 291 291 291 291 291 291 291 291 291 291 291 291 291 291 291 292 292 291 292
306 304 307 311 312 311 309 309 309 308 306 306 307 307 307 308 308 308 309 309 309 309 309 308 309 309 308 308 307 305 304 304 302 301 300 300 299 298 297 297 296 295 295 295 295 294 294 295 295 294 294 293 293 293 292 292 292 292 291 291 291 291 291 290 290 290 290 290 290 290 290 290 290 290 290 290 290 290 290 290 290 291 292 292 291 292
303 302 305 310 312 311 311 311 309 306 305 305 305 305 306 306 307 307 308 308 308 308 308 308 308 308 308 307 306 305 304 302 301 300 299 299 298 297 297 296 296 295 295 294 294 294 294 294 294 293 293 292 292 292 292 291 291 291 290 290 290 290 290 290 290 290 290 290 290 290 290 290 290 290 290 290 290 290 289 290 290 290 291 291 292 293
304 304 307 310 310 309 310 308 303 301 302 303 304 305 306 306 307 307 307 308 308 307 307 307 307 307 306 306 305 304 302 301 300 300 299 298 297 297 296 295 295 294 294 294 294 294 294 293 293 293 292 292 291 291 291 290 290 290 290 290 289 290 290 290 290 290 290 290 290 290 290 290 290 290 290 290 290 290 290 290 290 290 290 291 292 293
303 304 307 309 308 306 306 302 299 300 303 303 303 305 306 306 307 307 307 307 307 306 306 305 305 305 305 304 303 303 301 300 299 299 298 297 296 296 295 295 294 294 294 294 294 294 293 293 292 292 291 291 291 290 290 290 289 289 289 290 290 290 290 290 290 290 290 290 290 290 290 291 291 290 290 290 290 290 290 290 290 290 290 291 291 292
302 306 307 307 307 307 307 304 302 304 307 305 304 306 306 305 306 306 306 306 305 305 306 305 304 303 303 302 302 301 300 299 298 297 297 296 295 295 294 294 294 294 294 294 294 293 292 292 291 291 291 290 290 290 289 289 289 290 290 290 290 290 290 290 290 289 289 290 290 290 290 290 290 290 290 291 291 291 290 290 290 290 290 291 291 291
301 305 306 306 307 306 305 305 304 304 306 305 305 305 305 305 305 306 305 305 305 305 305 304 304 303 302 301 300 299 299 298 297 296 296 295 294 294 294 294 294 294 294 293 293 292 292 291 291 290 290 290 289 289 289 289 289 289 289 289 289 289 289 289 289 289 289 289 289 289 289 289 290 290 290 290 290 291 291 291 290 290 290 291 291 291
Wind_Speed
5 5 4 5 7 8 7 6 6 5 7 8 7 5 4 4 2 3 4 4 2 3 3 3 3 8 10 9 17 22 13 11 17 18 19 19 18 19 19 20 20 21 21 18 17 17 17 19 20 20 20 21 21 20 21 21 21 20 20 21 21 20 21 23 22 22 23 23 24 24 24 24 24 25 25 26 25 25 25 25 25 25 25 25 26 25
4 5 6 6 7 8 7 7 8 7 7 6 6 5 2 2 2 2 2 3 2 1 2 1 3 8 10 9 16 19 11 11 16 16 17 19 20 21 22 23 23 23 23 22 22 21 21 23 23 24 24 24 24 23 23 23 22 21 21 21 20 20 21 21 21 21 21 21 22 23 23 23 24 24 24 24 24 24 24 24 24 25 26 27 29 29
3 4 7 6 8 10 7 6 9 8 7 6 4 5 2 2 2 2 3 4 4 1 2 3 4 8 10 9 13 14 11 13 14 13 15 17 19 20 19 19 20 20 21 21 22 22 24 26 27 27 27 26 26 25 25 24 23 22 21 20 19 19 20 20 20 20 20 20 20 21 22 23 24 24 24 24 23 23 24 24 24 25 25 26 28 29
5 5 5 9 12 11 7 5 10 8 5 4 4 5 3 2 2 1 2 4 3 2 1 2 2 7 7 6 7 6 7 9 9 8 9 9 12 13 11 12 13 12 12 11 12 14 19 22 24 26 27 27 26 25 24 23 23 22 20 19 18 19 19 19 20 20 19 20 20 20 21 22 23 24 24 25 25 25 25 25 25 25 25 25 25 26
4 4 4 11 8 9 8 4 8 7 3 1 3 6 4 4 4 3 1 1 2 3 2 2 3 5 4 5 5 3 5 8 8 6 5 5 4 6 6 8 9 9 7 4 4 7 12 15 18 20 21 22 22 23 23 22 22 21 20 19 18 18 19 20 20 20 19 20 19 20 20 21 22 23 23 24 24 25 25 24 23 23 23 24 24 24
2 1 7 10 4 7 9 4 5 7 4 0 4 6 6 8 6 2 2 3 3 3 3 4 3 4 4 5 6 4 7 8 8 11 12 12 10 7 5 3 3 4 2 1 3 4 6 8 11 13 13 13 15 18 20 21 21 21 20 19 18 18 18 19 19 19 19 19 18 19 19 19 20 20 21 21 20 21 21 21 21 21 21 22 22 22
1 2 5 7 6 7 7 5 6 6 6 2 4 5 7 8 9 7 5 4 2 1 2 4 3 3 6 6 6 4 6 7 7 9 12 15 15 13 11 10 9 8 9 9 8 7 5 4 5 6 7 8 8 10 12 14 16 17 17 17 16 16 16 16 17 17 17 17 17 16 16 16 17 18 17 17 18 18 19 19 20 20 20 21 22 22
3 3 3 6 7 6 6 5 6 7 8 3 3 6 8 9 8 7 6 4 1 2 2 4 4 1 4 6 6 4 3 6 7 6 10 15 16 16 15 15 16 16 15 14 13 11 10 8 7 6 5 5 4 4 4 5 7 9 10 11 11 11 11 11 11 12 12 12 13 13 13 14 15 16 15 16 17 18 18 19 19 19 20 21 21 22
3 5 5 6 6 4 5 4 5 8 6 3 3 6 7 8 7 5 6 4 1 1 2 5 4 1 5 6 6 4 1 4 5 4 7 12 15 16 16 16 18 19 18 18 17 16 15 14 12 11 9 8 8 7 6 6 6 6 5 5 5 5 5 5 6 6 7 8 9 10 12 13 13 14 14 15 17 17 18 19 19 19 20 20 21 21
1 4 6 6 5 4 3 2 1 4 3 5 6 7 7 7 6 5 5 4 3 2 3 4 3 1 4 6 4 3 0 3 3 2 5 9 14 16 18 20 21 22 22 22 21 20 20 19 18 17 15 15 14 13 12 12 11 10 9 8 7 6 5 4 3 3 3 4 6 8 9 11 11 12 13 14 15 16 17 18 18 19 19 20 21 21
1 1 2 2 3 6 5 5 5 3 8 12 8 7 7 6 5 4 3 3 4 2 5 4 2 0 2 5 4 2 2 4 4 0 4 9 15 17 19 23 25 27 27 26 25 24 23 22 21 20 19 19 18 18 17 16 15 14 14 13 11 10 8 6 4 2 0 2 4 5 7 8 9 10 11 12 13 14 15 16 17 18 18 19 20 20
3 3 1 1 5 8 8 7 8 6 8 8 4 5 5 4 4 4 4 4 3 4 5 4 2 1 3 4 2 3 4 4 6 5 5 8 13 17 20 23 27 29 29 29 28 26 25 23 21 20 19 18 17 16 15 15 14 13 12 12 11 10 8 7 6 5 4 4 4 4 5 6 7 8 9 11 12 12 14 15 16 17 18 19 19 20
3 1 2 1 4 6 6 6 5 4 3 4 5 6 5 2 2 2 3 1 2 5 4 2 1 1 5 6 5 6 6 6 7 5 3 6 10 15 18 23 26 28 29 29 28 27 26 25 23 21 20 18 17 15 14 14 13 13 12 12 12 11 11 11 10 9 8 7 6 5 5 5 6 7 8 10 11 11 12 14 15 16 17 18 18 19
0 3 2 3 2 5 4 6 4 2 1 4 6 6 4 3 3 1 3 1 3 4 2 3 2 1 4 6 7 9 7 6 7 5 1 3 8 12 16 22 25 27 28 27 27 27 26 25 24 23 22 21 19 18 17 16 16 16 15 14 13 13 12 11 11 10 9 8 7 7 6 7 7 8 9 10 10 11 12 13 15 16 16 17 18 18
3 3 3 2 2 4 3 3 6 5 4 2 2 5 5 5 4 4 4 3 3 2 2 3 2 3 3 2 5 7 7 6 5 6 5 5 7 11 16 21 24 26 26 26 26 26 25 24 23 22 21 20 20 19 17 16 15 15 14 13 11 11 10 10 9 9 9 9 9 9 9 9 10 10 11 11 12 12 12 13 14 15 16 16 16 16
4 3 3 2 1 4 3 2 4 7 3 2 1 5 3 4 5 4 3 5 4 1 1 2 3 4 3 3 5 6 6 3 5 9 10 10 10 14 17 20 23 25 24 24 24 23 22 21 20 19 19 18 17 16 15 13 11 10 9 9 9 9 9 9 9 9 10 10 10 10 10 11 11 12 12 12 13 13 14 14 14 15 15 15 15 15
3 1 4 4 3 3 1 1 2 3 3 2 2 3 4 4 8 6 2 1 3 2 2 1 3 5 3 3 5 2 2 2 4 9 13 13 16 18 18 20 23 23 23 22 21 21 20 19 18 17 16 15 15 14 12 11 9 7 7 7 8 8 8 9 9 10 11 11 12 12 12 13 13 13 14 14 14 14 14 15 16 16 16 16 16 16
5 2 3 2 3 3 2 4 6 6 3 4 3 5 4 3 5 5 2 3 4 1 3 1 3 4 1 2 4 2 6 2 2 8 12 15 19 19 18 19 22 22 21 20 19 19 18 17 16 14 14 13 13 12 11 10 9 7 6 6 7 8 9 10 11 11 12 12 13 13 14 14 15 15 15 15 15 15 15 15 16 17 17 18 18 18
5 3 2 2 2 2 3 4 4 6 6 3 5 5 4 3 2 2 3 2 1 2 3 3 3 3 3 4 3 4 9 5 4 7 9 13 19 19 17 18 21 21 20 19 19 17 16 15 14 13 12 11 10 9 9 9 8 7 7 7 8 9 10 11 11 12 12 13 13 14 15 15 16 16 16 16 16 16 16 16 17 18 18 19 19 20
4 4 1 1 1 1 3 1 5 1 4 4 3 3 2 2 4 2 2 4 3 3 2 3 3 3 6 6 6 10 10 9 9 7 7 15 21 19 18 19 20 20 19 18 17 16 15 14 13 11 10 9 8 6 6 6 6 7 7 7 7 8 9 9 10 10 11 11 12 13 13 14 14 15 15 16 16 16 16 17 18 18 19 19 20 21
3 3 3 1 3 1 1 2 6 6 3 3 3 4 2 2 2 2 1 2 4 4 3 2 3 5 6 4 7 9 8 9 12 10 10 18 22 19 18 20 20 19 18 17 15 14 13 12 11 10 9 8 7 5 4 4 4 5 5 6 6 6 7 8 8 9 10 10 11 11 12 12 13 14 15 15 16 16 17 18 18 19 19 20 20 21
2 3 5 2 1 2 3 3 3 4 4 4 4 5 6 4 4 3 1 1 2 3 4 4 3 7 6 3 5 6 5 10 16 17 17 22 23 19 18 19 19 18 17 15 14 12 11 10 9 9 7 6 5 4 4 4 4 4 5 5 5 5 6 6 7 8 9 10 11 11 12 13 13 14 14 15 16 16 17 18 19 20 21 21 21 22
3 4 5 2 3 3 3 3 2 3 1 2 2 3 5 4 5 6 5 3 2 2 2 3 1 7 6 3 5 6 6 12 17 18 21 24 21 17 17 18 17 17 15 13 12 11 9 9 8 7 6 5 5 5 5 4 4 4 4 4 4 4 5 6 7 8 9 10 11 12 13 14 15 16 16 17 17 18 19 20 20 21 22 22 23 23
3 4 4 1 2 2 4 4 1 0 1 1 3 2 4 3 3 5 5 4 4 4 3 3 2 6 6 4 5 7 6 10 13 15 22 25 20 16 16 17 16 15 13 12 11 9 8 7 6 6 5 5 5 4 4 3 3 3 3 4 4 5 6 7 8 9 10 11 12 14 16 17 18 19 19 20 20 21 22 22 23 24 24 25 25 25
5 2 5 3 2 3 4 4 3 3 1 3 3 2 4 4 6 4 2 4 2 5 7 5 4 7 5 5 4 2 5 9 11 15 20 22 18 15 15 16 15 14 12 12 10 8 7 6 5 5 4 4 3 2 2 2 2 2 2 3 4 5 6 8 9 10 11 12 13 15 17 18 19 20 20 21 21 22 22 23 24 24 25 26 27 27
7 2 5 6 5 5 5 4 4 3 3 2 2 4 6 6 8 5 3 4 3 4 6 6 5 5 5 4 4 2 6 7 10 13 16 19 18 14 14 15 14 13 12 11 9 7 6 6 5 5 5 4 4 4 4 3 3 3 3 4 4 6 7 8 10 11 12 13 14 16 17 19 19 20 21 21 22 23 23 23 24 24 25 26 26 27
4 1 6 7 9 11 8 6 4 5 6 4 4 7 7 7 8 6 5 4 5 3 4 6 5 4 5 3 1 6 8 7 9 13 17 20 17 13 13 14 13 12 11 9 7 6 5 5 5 5 4 4 5 4 4 4 3 3 4 5 6 7 8 9 10 12 13 14 15 16 17 19 20 20 21 22 23 24 24 25 26 26 27 27 28 28
3 3 7 8 11 8 5 6 5 7 9 8 8 9 8 8 9 8 7 8 6 6 7 8 7 6 7 6 7 10 8 6 10 16 21 22 17 12 12 13 12 12 11 9 7 6 5 5 4 3 3 3 4 4 4 4 3 4 5 6 7 8 9 10 11 13 14 15 16 17 18 19 20 21 22 23 24 25 26 27 28 29 29 30 30 31
4 6 7 6 9 5 2 4 5 7 7 8 10 12 12 12 12 12 14 11 9 8 11 7 11 10 9 8 9 13 14 15 19 22 23 22 15 10 12 13 13 13 11 10 8 6 5 4 3 2 2 1 2 2 3 3 3 4 5 7 8 10 11 13 14 15 16 17 18 19 20 21 22 23 24 25 26 27 28 28 29 30 30 31 31 32
3 4 4 6 8 5 1 1 3 5 5 5 10 13 13 15 16 17 18 15 12 12 8 7 11 12 9 8 12 19 22 20 19 20 21 20 15 11 13 14 13 13 12 9 8 7 6 3 2 1 1 2 2 2 2 2 3 4 6 7 9 11 13 14 16 17 18 19 20 21 21 22 23 24 25 26 27 28 29 30 31 31 32 33 33 34
3 3 3 6 5 4 1 1 2 4 4 4 6 8 10 14 15 17 18 13 10 11 5 6 7 10 6 7 14 22 21 14 14 19 21 19 15 13 16 16 14 13 11 9 9 8 6 4 4 4 4 4 4 2 1 2 3 5 7 9 10 12 14 16 17 18 19 20 21 22 23 24 24 26 27 28 29 29 30 31 32 33 34 35 36 36
4 2 2 5 4 5 3 2 4 5 5 1 3 8 12 13 13 14 12 8 9 12 8 5 7 9 5 8 13 14 14 14 16 20 20 17 15 16 18 18 15 13 12 11 10 9 7 6 5 5 5 5 4 3 2 3 4 6 8 10 12 14 15 17 18 18 19 20 22 23 24 25 26 27 27 28 30 30 31 33 33 34 35 36 37 38
5 5 2 4 6 4 4 2 6 7 4 3 8 12 16 14 11 7 5 6 11 12 9 8 11 8 7 11 10 7 8 14 19 23 23 19 17 18 18 17 16 15 13 12 11 9 8 7 7 6 6 5 3 3 3 4 5 7 9 11 13 15 16 17 18 19 20 21 22 23 24 26 26 27 28 29 30 31 31 33 34 35 36 37 38 39
5 6 4 4 4 3 5 1 6 4 5 8 6 9 15 16 13 11 10 13 14 11 6 4 5 4 7 11 12 10 13 17 20 24 24 20 18 19 19 17 16 15 13 12 11 10 9 8 8 7 6 4 3 2 3 5 7 9 11 12 14 16 17 18 18 20 20 21 23 24 25 26 27 28 29 29 30 31 32 33 34 35 36 37 38 39
5 6 4 2 4 2 1 3 4 6 9 6 4 2 10 14 15 15 14 13 11 10 8 7 6 5 10 15 18 20 23 21 18 19 18 17 18 18 17 17 15 14 13 13 12 11 10 9 8 7 5 4 3 2 3 6 7 9 11 13 15 17 18 19 20 21 22 23 24 25 27 28 29 30 31 31 32 33 34 34 35 36 37 38 38 39
6 6 3 2 3 3 2 4 6 6 5 4 5 3 3 5 7 8 10 10 9 10 11 14 13 9 11 16 18 18 19 17 14 15 16 16 16 15 16 16 16 15 14 14 13 12 10 9 8 6 5 4 3 3 5 7 9 11 13 14 16 18 19 20 21 22 23 24 25 26 28 29 31 31 32 33 34 35 35 36 36 37 38 39 39 39
7 6 3 3 3 3 3 4 3 4 5 5 5 4 4 6 8 8 7 9 10 13 15 15 11 8 12 15 15 14 12 10 8 10 14 16 16 17 17 16 16 16 15 14 13 11 10 8 7 5 3 3 4 5 7 9 11 12 14 15 17 18 19 20 21 22 23 24 25 27 28 29 31 32 33 34 35 36 37 37 37 37 38 39 40 40
4 3 4 5 3 4 4 1 1 3 7 7 6 5 8 12 13 11 6 6 7 14 21 17 9 9 12 13 14 14 11 6 4 9 17 19 18 18 18 17 18 17 15 14 12 11 9 7 5 3 2 3 5 7 8 10 12 13 14 15 16 18 19 20 21 23 24 25 26 28 29 30 32 34 35 36 37 38 38 38 38 39 39 40 42 42
2 2 4 4 2 3 4 4 5 6 7 5 6 6 9 16 16 11 3 7 5 13 24 20 10 13 17 19 21 17 10 5 7 13 22 24 20 20 19 18 18 16 15 14 11 10 8 5 4 3 3 4 7 8 9 11 12 13 14 15 16 18 20 21 23 24 25 27 27 28 30 31 33 34 36 37 38 39 40 40 40 41 41 42 43 44
3 2 3 4 4 5 5 5 4 4 4 4 6 6 12 19 18 12 1 8 4 14 23 22 18 21 26 27 24 15 9 10 9 12 23 26 21 21 20 18 18 16 14 13 10 8 7 4 3 4 4 6 8 9 10 11 12 13 15 16 18 21 22 23 25 26 27 28 29 30 31 32 33 35 36 37 39 39 40 41 41 42 43 43 44 45
3 2 4 6 7 7 7 6 3 3 5 5 5 9 17 18 11 6 7 7 10 16 20 23 25 27 27 27 25 18 18 17 9 8 21 27 23 23 21 18 17 15 12 11 9 7 6 4 3 4 5 7 8 10 11 12 14 15 17 19 21 23 25 26 27 28 29 30 30 31 32 32 33 34 35 36 38 39 40 40 41 42 43 43 43 44
4 3 4 6 6 5 6 5 3 5 5 6 7 12 17 11 4 7 6 5 11 15 14 19 24 22 21 26 28 25 22 18 10 11 23 28 25 23 21 17 16 14 12 11 9 6 5 4 3 4 6 8 9 11 13 15 16 18 19 21 23 25 27 28 29 30 31 31 31 31 31 31 31 32 33 34 35 37 38 39 39 41 42 43 43 43
6 5 3 5 6 5 4 5 5 6 4 14 16 8 7 6 4 6 8 7 8 11 12 16 20 18 17 21 25 23 19 15 15 20 26 26 23 22 19 17 15 13 11 9 7 6 5 3 3 4 6 9 11 14 16 18 19 20 22 23 25 27 29 30 30 31 31 31 31 31 31 31 31 31 32 33 34 36 37 38 38 40 41 42 43 43
5 5 4 3 5 5 5 6 5 3 8 23 19 6 12 18 10 5 11 11 9 11 13 14 16 16 16 18 21 22 19 18 22 26 27 25 22 20 18 15 13 11 9 7 6 5 4 4 5 6 8 11 14 16 18 20 22 23 24 25 27 28 29 30 31 31 32 32 33 33 33 33 34 34 34 35 36 37 37 38 39 40 40 41 42 43
5 5 4 3 4 5 4 4 5 4 13 26 19 6 17 29 18 6 11 14 11 13 14 13 13 15 16 18 22 24 23 24 26 27 26 24 21 18 16 14 11 9 7 6 5 4 5 6 7 9 10 12 15 18 19 21 24 25 26 26 27 29 31 32 33 34 34 35 35 36 37 37 37 37 37 37 38 38 39 39 39 40 40 41 41 42
3 3 2 2 3 4 2 2 5 6 11 22 19 7 11 24 20 10 10 13 11 11 12 12 12 14 16 20 23 24 25 26 27 26 24 23 20 17 15 12 10 8 6 5 5 6 8 9 11 12 13 14 16 18 20 22 24 26 27 28 29 31 33 34 36 36 37 37 38 38 39 39 40 40 39 39 39 39 39 39 40 40 41 41 41 41
2 3 2 1 3 5 4 4 6 7 10 16 19 13 10 17 19 15 12 11 10 11 13 14 14 15 18 22 23 24 26 27 27 27 24 21 19 16 13 10 8 6 5 5 6 9 11 13 14 15 16 16 17 19 20 22 24 26 28 30 32 34 35 36 38 39 39 39 40 40 40 40 41 41 41 41 41 41 40 40 40 40 41 41 41 41
3 5 4 2 3 4 4 4 3 5 8 10 15 16 14 15 19 19 17 15 14 14 15 16 16 18 20 23 24 25 26 27 26 25 23 19 17 14 11 9 7 5 5 6 9 11 13 15 17 17 18 18 19 20 21 23 25 27 29 32 33 35 36 37 38 39 39 40 40 40 40 40 41 42 42 43 42 42 42 41 41 41 41 41 40 40
3 5 4 4 3 2 3 3 1 1 5 8 15 20 20 19 20 21 20 18 16 16 17 18 20 21 23 24 24 25 26 26 23 21 19 17 15 12 10 7 5 4 6 9 11 13 15 17 18 18 19 20 21 23 24 25 27 28 30 32 33 34 36 37 37 38 39 40 41 41 41 42 42 43 43 44 44 44 44 43 43 43 43 41 40 39
4 4 3 3 4 3 4 7 9 5 4 11 20 24 23 21 20 20 19 18 18 19 21 22 24 25 24 24 23 22 24 25 22 19 17 14 12 9 7 5 5 6 8 10 13 15 16 18 19 20 21 23 24 25 26 27 28 29 30 31 33 34 35 37 38 40 41 41 42 43 43 44 44 44 45 45 46 46 46 45 44 44 44 43 42 39
7 6 5 5 6 7 10 17 20 14 8 11 18 22 22 21 20 20 21 21 21 22 24 25 26 27 27 25 22 20 20 20 19 17 15 12 9 8 6 6 7 8 10 13 15 16 17 19 20 22 23 25 26 27 28 28 29 29 30 32 33 35 37 38 40 41 42 43 44 44 45 45 46 46 46 46 46 46 47 47 46 44 44 44 43 42
Wind_Direction
115 123 152 176 181 180 176 146 136 137 122 131 126 108 146 160 225 245 257 302 70 138 250 252 267 282 277 277 279 283 289 275 273 275 276 277 275 272 267 261 259 258 259 259 257 251 244 242 239 238 238 239 240 240 242 244 246 248 250 253 254 255 257 257 258 259 259 260 261 262 263 264 266 267 269 270 272 274 275 276 277 279 280 281 283 282
102 149 204 211 182 156 139 122 109 96 86 98 122 125 142 177 206 242 256 322 25 145 241 347 324 281 270 268 271 278 282 269 270 271 276 280 275 272 269 268 267 265 263 261 257 252 247 246 245 245 244 245 246 246 247 247 247 248 250 251 253 254 255 256 257 258 260 262 263 266 268 270 272 271 271 272 274 276 277 277 276 275 275 277 281 283
120 195 231 197 140 109 89 93 97 89 86 86 110 128 148 209 216 288 296 335 14 107 259 345 338 282 272 271 273 278 273 271 279 277 277 280 277 277 276 275 273 267 264 260 256 253 250 249 249 250 249 248 249 248 247 246 245 247 249 250 252 252 252 252 254 255 258 262 264 267 268 270 271 271 272 272 273 272 271 272 272 271 268 266 267 270
164 247 232 162 138 112 82 79 96 87 82 91 111 132 175 228 157 204 265 329 9 77 264 286 303 285 293 304 294 292 283 289 303 292 284 286 285 289 289 282 278 272 266 256 247 244 243 244 246 248 248 247 246 244 243 241 242 243 245 247 247 246 246 246 249 251 255 258 261 264 266 267 267 268 269 269 269 267 266 265 266 269 271 271 270 270
177 279 161 141 130 119 111 102 114 105 72 64 144 142 167 193 170 192 207 343 356 31 26 42 337 297 328 340 300 312 336 336 360 19 27 24 344 318 307 290 279 277 276 260 225 222 229 233 237 241 243 244 242 239 236 234 234 236 237 240 240 241 241 242 245 249 252 255 257 260 262 264 265 266 267 266 267 268 270 272 273 276 277 278 278 274
194 298 142 133 104 117 123 146 167 139 113 215 210 175 170 166 153 141 93 70 46 10 356 32 17 291 321 325 272 305 346 340 7 37 46 46 45 41 27 7 295 275 273 132 130 173 207 219 227 231 232 234 234 232 232 231 231 231 232 235 237 239 241 242 245 248 252 254 256 259 261 264 267 268 269 271 275 277 277 280 281 281 280 279 279 277
155 86 122 127 126 126 128 172 198 149 125 173 221 169 146 131 125 129 117 87 97 206 328 45 115 252 316 312 269 310 340 328 351 26 36 41 46 51 58 70 85 94 97 101 102 107 123 152 185 199 203 211 215 220 226 229 231 231 232 235 237 239 241 244 246 247 250 254 257 261 265 268 269 270 275 279 281 281 280 279 277 275 276 277 277 277
115 108 82 102 116 122 140 187 208 147 131 188 210 131 127 122 128 139 113 94 168 213 325 19 94 185 301 280 275 317 350 344 353 4 20 35 45 52 64 78 89 94 95 95 95 94 95 103 112 123 140 152 159 174 189 200 212 219 223 227 231 234 237 240 242 244 249 255 259 264 266 267 269 273 280 282 281 281 279 277 276 275 275 275 276 276
96 157 171 134 115 138 177 223 196 138 112 236 195 122 124 120 121 120 96 94 36 42 295 334 37 148 265 275 305 348 18 338 348 354 6 25 42 56 70 80 87 91 92 91 90 90 89 90 93 96 100 103 107 112 118 128 138 151 167 180 191 200 209 218 227 235 243 251 256 261 266 270 276 282 284 283 282 282 281 279 280 279 278 279 279 278
51 179 184 146 132 173 192 324 203 131 105 169 147 99 85 76 80 83 86 103 53 47 233 286 15 157 265 284 307 1 79 242 262 307 350 29 52 65 76 83 87 89 90 90 89 89 88 88 89 89 92 95 97 99 101 104 107 110 114 118 121 124 130 141 159 197 231 252 263 271 278 283 287 289 287 285 284 282 282 283 282 282 282 282 281 279
328 103 132 117 134 155 136 63 30 59 129 139 121 81 70 42 39 53 51 83 68 326 248 264 322 122 272 284 262 227 204 190 179 148 9 48 67 76 83 87 89 90 91 91 90 89 88 87 87 88 90 90 90 92 93 93 95 97 99 101 101 103 103 103 103 95 20 301 299 298 297 298 298 295 292 289 289 288 285 285 284 284 283 281 280 279
5 73 42 79 126 127 110 65 39 60 114 117 97 98 86 13 10 28 0 42 96 251 260 274 300 160 214 266 277 267 261 206 160 127 69 54 70 80 86 89 90 92 93 94 93 91 90 89 88 88 88 87 87 88 87 87 88 89 90 90 90 91 89 84 80 69 52 34 10 351 336 329 321 312 306 302 300 296 291 289 288 286 283 282 281 280
41 83 314 64 150 155 119 82 45 8 34 77 107 115 98 21 16 12 315 352 192 237 272 286 270 201 231 250 263 268 261 227 201 170 75 58 81 87 89 91 91 92 94 94 93 91 89 87 85 85 84 84 85 84 86 86 87 88 88 88 89 89 88 86 82 78 74 67 57 40 19 359 343 329 318 312 308 303 298 294 290 287 285 284 282 281
37 305 307 96 210 219 157 123 137 255 223 135 142 135 132 118 93 234 259 290 248 251 288 282 266 243 266 265 240 235 237 226 224 232 282 78 96 96 97 94 91 92 93 92 91 88 86 83 82 81 80 79 79 80 84 89 91 92 92 91 90 88 87 86 83 80 76 70 62 50 35 21 7 357 346 334 325 316 309 303 298 295 293 291 288 287
165 264 229 160 203 199 180 159 152 140 131 178 171 127 147 156 145 195 211 188 219 256 297 292 266 186 209 257 223 230 254 252 226 214 188 149 121 112 107 98 94 94 92 90 89 86 83 81 79 77 75 74 74 75 80 86 89 89 87 85 81 78 74 70 67 62 56 49 43 34 26 19 11 6 1 354 346 337 327 316 309 304 300 297 295 292
162 236 263 303 305 148 163 214 132 107 108 238 118 106 163 183 137 137 174 170 165 134 298 259 234 216 214 267 276 275 278 258 195 193 175 152 138 126 114 102 98 97 93 90 87 83 81 78 74 69 66 65 66 68 71 75 79 76 70 65 58 55 50 45 43 39 35 29 23 17 11 4 359 356 353 351 348 343 339 331 320 313 305 300 296 293
156 245 320 352 16 60 108 215 96 102 161 160 117 167 209 158 114 114 151 57 85 144 258 219 242 293 309 272 305 324 174 100 130 181 175 156 144 131 115 103 101 99 94 90 86 81 77 71 65 60 55 53 51 52 56 58 59 51 40 30 26 25 22 19 17 16 14 10 6 1 356 351 348 346 343 341 339 336 335 331 325 321 314 308 302 297
152 122 341 28 74 15 27 93 62 41 88 123 170 195 177 114 98 110 123 21 45 213 276 291 227 287 298 232 322 79 162 154 103 170 167 155 145 133 117 106 103 99 95 91 85 80 74 68 64 59 54 49 41 38 37 37 37 31 18 4 360 359 359 359 358 357 355 353 352 348 346 345 342 342 340 337 336 333 330 326 323 323 321 318 314 309
129 106 337 20 122 307 352 90 87 25 37 105 173 161 116 131 162 106 127 140 108 217 276 308 276 254 207 216 254 184 185 195 183 170 159 155 148 137 122 111 107 103 98 92 86 81 77 74 72 66 61 56 46 37 27 24 21 15 5 357 350 346 349 350 348 347 344 343 343 342 343 343 342 343 342 340 340 336 332 328 324 322 322 322 321 318
112 115 209 320 314 286 3 91 179 192 25 48 114 125 77 124 161 158 146 159 167 184 239 313 325 254 228 213 198 198 195 178 165 166 166 159 151 139 126 116 111 106 101 94 89 86 84 81 76 71 69 62 55 47 30 16 3 358 1 359 353 350 351 351 349 348 347 346 346 345 345 344 344 345 345 345 345 344 342 338 334 331 329 329 326 322
92 117 158 325 327 221 171 216 195 177 143 106 136 164 174 75 117 157 89 112 139 152 177 233 293 266 246 212 198 202 194 177 167 162 171 164 151 138 126 121 115 110 105 99 95 93 89 85 78 72 68 61 57 48 31 18 1 359 2 358 358 358 356 358 2 3 2 3 2 358 356 353 351 350 349 349 350 350 349 347 344 343 342 341 337 333
118 126 141 138 232 191 217 258 215 185 174 162 176 184 173 141 122 147 237 271 119 133 164 166 244 270 255 205 212 217 195 190 180 165 164 165 153 136 128 126 120 114 111 107 106 104 97 91 84 77 73 68 60 45 37 30 14 6 2 3 8 3 359 3 9 14 15 14 11 6 3 358 353 350 347 347 346 344 344 342 341 340 340 340 340 339
113 106 113 150 206 204 258 284 218 219 225 128 198 196 159 152 134 146 201 224 124 115 143 123 231 272 263 210 225 249 216 189 183 169 160 160 151 133 129 131 124 119 119 118 118 115 108 98 88 82 76 66 56 45 41 31 20 16 8 13 17 12 15 17 15 15 12 8 5 1 358 353 350 347 343 341 338 336 334 333 332 331 330 331 332 332
122 105 101 57 307 313 318 335 20 267 64 153 234 190 153 180 144 143 180 169 138 165 145 87 281 268 276 270 262 265 221 179 177 170 161 159 149 134 133 134 129 127 129 131 129 123 115 105 94 87 75 63 56 41 31 26 29 35 26 20 15 11 16 13 7 5 360 357 356 352 350 348 347 345 343 341 338 335 333 330 328 327 325 324 324 324
173 146 122 115 27 1 347 348 333 304 228 202 227 184 159 124 94 102 124 98 124 201 159 144 235 253 273 310 323 276 186 171 172 170 167 163 151 139 140 138 134 137 141 141 140 132 124 120 110 100 89 81 81 85 90 83 65 55 37 22 13 9 7 2 358 355 352 350 350 347 345 344 342 341 341 341 341 340 338 335 333 330 326 324 322 320
167 175 151 147 158 185 202 212 220 215 187 205 211 180 177 146 139 151 112 108 221 221 160 167 225 256 281 334 9 139 167 173 177 174 174 169 155 143 145 145 141 144 149 149 147 144 137 130 120 109 109 117 124 129 121 98 69 48 31 18 12 6 0 358 354 352 349 348 346 344 341 339 339 339 340 341 341 341 341 340 339 337 335 332 329 327
132 226 185 182 195 199 195 197 180 128 143 188 187 174 177 170 163 135 106 171 200 152 181 217 193 197 254 288 238 185 182 188 188 183 183 177 164 151 150 152 151 152 158 161 156 154 148 132 122 114 112 121 120 109 91 71 54 33 17 10 8 3 359 356 354 351 350 348 347 345 342 339 338 337 337 337 337 337 337 337 336 336 336 335 334 333
90 209 200 200 214 210 171 178 172 138 163 182 167 167 175 173 161 150 185 206 145 126 236 233 171 186 236 231 209 197 189 205 204 191 186 180 170 161 158 162 168 169 170 173 170 168 162 141 121 109 101 101 95 75 48 38 26 12 6 1 360 359 357 355 354 352 350 347 346 343 341 339 337 335 334 333 332 331 330 330 330 330 331 331 330 330
119 201 203 192 212 217 114 170 179 155 167 171 168 175 175 172 172 184 210 207 151 185 239 195 163 205 224 210 211 199 191 198 198 190 184 181 179 176 171 173 179 183 182 181 183 181 170 150 116 91 92 86 54 20 10 8 3 1 359 357 356 354 352 352 352 351 348 345 343 340 338 337 335 333 332 330 330 329 328 327 328 327 327 327 327 327
146 201 188 167 205 221 126 176 179 149 149 165 183 184 174 179 186 195 213 210 187 214 233 151 179 221 213 198 209 203 198 195 189 185 184 187 192 187 181 184 185 186 187 188 191 186 172 158 146 174 233 271 294 318 341 342 347 355 354 355 355 351 349 351 350 348 346 344 342 340 338 336 335 333 332 330 329 329 328 328 328 327 327 326 326 326
180 210 156 135 192 245 299 105 125 120 136 171 194 192 183 190 196 204 216 210 198 227 225 138 209 246 229 211 214 207 202 189 183 191 191 193 197 190 188 191 189 187 190 191 189 182 175 175 184 206 235 257 265 274 313 335 348 355 355 355 354 351 350 349 348 347 344 341 340 340 338 336 336 335 333 332 331 330 329 329 328 328 327 326 325 325
168 185 64 105 171 251 315 107 121 82 64 59 233 208 196 198 202 209 215 188 186 217 207 167 239 252 210 204 218 212 197 185 191 197 195 198 201 196 196 195 191 192 191 185 185 185 188 197 206 222 237 247 255 269 303 334 345 346 350 352 349 349 349 346 345 344 341 339 338 337 335 334 333 333 332 331 330 330 329 329 328 328 326 325 325 324
150 145 120 135 176 252 316 115 125 91 71 271 249 210 197 203 204 202 225 217 204 204 190 197 234 234 168 182 208 214 193 196 201 199 200 207 207 200 201 198 193 193 191 193 204 212 219 223 223 228 236 244 259 286 316 339 347 342 345 349 345 344 343 340 339 338 336 335 334 332 332 331 330 330 329 328 327 327 326 326 326 326 325 323 323 322
137 139 160 156 155 249 295 62 109 122 202 235 240 189 185 195 194 190 214 222 212 203 199 225 241 198 157 179 197 207 209 213 214 208 208 215 212 202 199 198 199 204 209 219 226 223 221 219 213 218 226 235 256 294 327 340 346 343 342 344 340 337 335 333 332 331 330 330 329 328 327 325 325 325 324 323 323 322 321 321 321 321 320 319 319 319
143 138 152 132 118 161 286 78 128 201 227 247 304 201 186 190 188 197 219 227 212 207 225 254 252 195 179 190 197 209 218 220 222 222 220 219 215 206 203 206 213 219 220 221 216 208 206 204 201 210 214 217 239 282 323 332 337 337 335 334 331 329 327 326 325 325 325 325 324 324 323 322 322 321 320 319 318 318 317 317 316 316 315 314 314 314
148 145 135 121 127 131 131 161 191 231 261 278 298 293 176 152 155 191 239 254 225 201 211 232 232 199 185 197 201 211 222 220 220 226 222 217 215 213 216 217 214 211 208 204 200 196 196 194 192 198 208 218 253 295 317 324 326 327 327 325 323 322 320 320 320 319 320 321 321 321 321 319 319 318 318 317 316 316 316 315 315 315 313 312 311 311
142 150 139 163 176 142 153 199 240 309 309 264 251 235 165 148 152 172 223 252 227 201 202 220 224 182 178 197 199 200 203 197 210 223 211 207 210 210 211 210 204 201 196 192 192 189 187 189 188 192 222 257 295 311 315 320 321 321 321 318 316 315 315 316 317 316 317 318 318 318 318 317 317 316 316 316 315 314 314 314 314 315 314 313 312 311
131 154 156 179 191 125 130 191 270 264 254 235 224 220 189 176 169 162 187 257 243 202 199 210 211 171 173 190 191 183 175 172 228 224 202 200 204 199 196 196 195 193 189 187 187 182 180 185 188 201 260 292 305 311 311 314 314 313 314 313 311 311 312 313 313 313 313 314 315 315 316 315 315 314 314 314 313 313 313 313 313 313 314 314 313 312
88 66 126 152 172 139 159 203 195 215 247 225 195 209 186 170 152 122 136 268 252 189 197 205 193 174 186 194 184 169 159 185 236 220 201 197 196 192 190 190 188 186 184 183 182 178 179 182 190 222 280 294 296 304 307 309 312 311 312 315 314 312 313 312 311 311 310 311 312 312 313 313 312 311 310 310 310 310 310 310 310 310 311 311 311 310
126 102 141 170 196 186 190 214 216 238 256 203 195 198 169 156 137 110 227 259 193 169 192 199 191 194 203 197 178 163 180 209 233 225 202 194 189 187 186 184 182 181 179 177 177 179 182 185 202 240 278 288 293 304 306 309 314 314 316 318 316 314 314 312 311 311 311 311 311 310 310 310 308 308 307 306 306 306 306 307 307 307 307 307 308 308
153 166 188 194 202 200 199 214 254 270 235 213 205 168 152 143 132 156 230 224 166 172 192 196 198 208 208 190 177 186 207 213 228 217 191 186 184 181 179 178 179 178 174 175 180 183 188 203 236 264 288 297 302 307 308 310 315 315 317 317 314 313 312 311 312 312 312 312 311 310 310 309 308 308 307 307 307 305 305 306 306 305 305 305 305 306
170 174 190 196 199 203 209 217 249 269 229 175 147 152 153 146 177 214 204 157 164 183 195 198 204 212 207 194 194 203 210 213 215 191 180 181 181 176 173 175 176 177 180 182 186 193 202 223 260 284 298 305 308 308 309 312 314 315 316 316 314 313 313 312 313 313 313 313 313 313 312 312 312 312 311 311 312 310 310 310 309 307 305 304 304 304
176 172 184 192 189 188 205 202 214 261 208 139 128 130 168 179 220 203 174 157 175 192 199 204 208 211 206 200 199 201 204 199 189 180 176 175 173 170 172 177 178 182 189 190 194 207 218 242 274 292 303 307 308 310 312 314 315 317 317 317 316 315 313 313 314 314 314 315 315 315 315 314 314 314 314 314 314 313 313 313 313 310 307 305 303 302
186 182 181 196 195 191 203 203 202 231 158 153 153 174 201 201 223 224 188 189 193 192 196 203 206 207 206 199 192 190 189 180 173 174 172 169 170 172 175 177 181 186 193 200 210 223 244 270 286 301 310 311 312 314 316 316 317 317 317 316 316 314 313 313 313 314 314 315 314 314 314 313 313 313 312 312 312 311 312 313 313 312 310 307 304 302
206 196 170 177 196 189 194 216 217 191 171 177 187 207 195 199 212 220 198 203 202 192 192 193 194 195 195 195 188 181 178 174 171 172 172 170 172 175 175 177 183 187 196 216 237 259 282 292 301 309 313 315 316 316 317 317 316 315 316 316 315 313 313 312 312 313 313 313 313 313 312 311 311 311 311 311 310 310 310 311 311 311 310 307 304 303
234 197 134 130 190 203 219 214 206 207 197 196 204 215 194 198 201 190 187 197 194 188 188 191 198 199 193 193 189 179 175 174 170 170 173 174 174 177 179 181 185 192 211 239 267 290 300 306 311 313 315 317 316 314 314 315 315 315 316 315 314 313 312 312 312 312 312 312 312 312 311 311 310 310 309 309 309 309 309 309 309 308 308 307 304 303
279 187 162 159 194 203 219 211 196 213 222 210 209 216 205 196 195 190 186 190 195 202 204 204 211 212 200 196 193 183 175 173 171 171 174 176 177 180 184 188 194 209 233 265 291 303 308 312 313 312 314 313 311 311 313 314 315 316 316 315 314 313 312 312 312 312 313 313 313 313 313 312 311 310 310 309 309 309 308 308 307 306 305 305 304 303
221 176 175 217 205 193 220 241 221 228 238 225 218 220 214 202 201 201 203 210 214 215 212 207 206 205 196 191 192 186 175 172 175 175 174 177 181 184 188 196 208 231 265 290 304 308 310 311 310 310 311 311 313 314 314 315 316 315 314 313 313 312 312 313 314 314 315 315 316 316 316 315 314 314 313 312 312 311 310 309 308 305 304 304 304 304
151 167 185 196 194 212 278 273 214 295 276 244 226 222 217 210 209 209 211 216 214 207 203 196 193 195 192 186 187 184 176 172 176 178 178 181 185 188 194 205 223 259 287 301 307 307 306 306 306 309 312 314 316 316 315 315 315 313 313 313 312 313 313 314 315 316 317 318 319 319 319 318 318 317 316 315 314 313 312 311 310 307 305 304 304 304
145 178 185 153 167 218 242 209 184 177 250 233 224 224 221 213 212 213 213 212 208 204 201 192 185 185 185 183 184 185 180 175 175 179 182 185 189 195 207 226 254 280 293 299 300 300 301 305 308 311 314 315 315 314 314 314 314 314 314 314 313 314 315 316 317 318 318 319 320 320 320 320 319 318 317 316 315 314 313 312 310 308 307 306 305 305
195 200 180 164 187 222 229 217 207 206 228 235 227 227 224 218 216 217 215 213 208 204 202 199 192 186 183 182 182 183 183 180 178 181 185 190 199 213 232 254 270 284 291 294 297 300 304 308 310 311 312 311 311 312 313 314 315 316 315 314 315 316 316 317 318 318 318 319 319 319 319 318 318 317 316 315 314 313 312 311 310 309 308 307 307 306